Regional Weather Roundup
Issued by NWS

Home | Current Version | Previous Version | Graphics & Text | Print | Product List | Glossary On
Versions: 1 2 3 4 5 6 7 8 9 10 11 12 13 14 15 16 17 18 19 20 21 22 23 24 25 26 27 28 29 30 31 32 33 34 35 36 37 38 39 40 41 42 43 44 45 46 47 48 49 50
000
ASUS45 KTFX 310804
RWRMT
MONTANA HOURLY WEATHER ROUNDUP
NATIONAL WEATHER SERVICE GREAT FALLS MT
204 AM MDT FRI OCT 31 2014

NOTE: "FAIR" INDICATES FEW OR NO CLOUDS BELOW 12000 FEET WITH NO
SIGNIFICANT WEATHER AND/OR OBSTRUCTIONS TO VISIBILITY.

* THESE STATIONS ARE NOT UNDER NWS QUALITY CONTROL. THEY DO NOT
   REPORT WEATHER SUCH AS PRECIPITATION OR FOG.

MTZ001>007-043-310900-
WEST OF THE DIVIDE
CITY           SKY/WX    TMP DP  RH WIND       PRES   REMARKS
KALISPELL      FOG       34  34 100 CALM      29.92F VSB M1/4
MISSOULA       MOCLDY    37  37 100 CALM      29.96F
BUTTE          MOCLDY    34  28  79 CALM      30.06F
MULLAN PASS    PTCLDY    39  36  89 S12       29.91F WCI  32
* DEER LODGE   PTCLDY    48  30  50 W5         N/A
* ESSEX        N/A       40  37  89 S9G14      N/A   WCI  34
* HAMILTON APT CLOUDY    39  36  89 S2         N/A
* LIBBY APT    PTCLDY    43  39  86 N/A        N/A
* LINCOLN      N/A       32  31  96 NW1        N/A
* LOOKOUT PASS N/A       38  38 100 S8G14      N/A   WCI  32
* POLSON       N/A       39  39 100 N/A        N/A
* RONAN APT    PTCLDY    43  39  86 N/A        N/A
* SEELEY LAKE  N/A       32  31  96 E1         N/A
* THOMP F APT  PTCLDY    50  27  41 E8G14      N/A
* YAAK HILL    N/A       43  40  89 E1         N/A
$$

MTZ008-052>055-310900-
SOUTHWEST MONTANA
CITY           SKY/WX    TMP DP  RH WIND       PRES   REMARKS
BOZEMAN        MOCLDY    37  30  76 CALM      30.07F
DILLON         CLOUDY    37  28  70 S6        30.07F WCI  32
W YELLOWSTONE  PTCLDY    27  25  92 CALM      30.19F
* ENNIS APT    PTCLDY    52  27  38 SE7        N/A
* THREE FORKS  MOCLDY    34   7  32 N/A        N/A
* BOULDER HILL N/A       39  23  53 S13        N/A   WCI  31
* MONIDA PASS  N/A       38  25  60 E2         N/A
* RAYNOLDS PAS N/A       37  20  50 SE11G18    N/A   WCI  29
* WHITEHALL    N/A       33  28  82 N3         N/A
* WISE RIVER   N/A       33  30  89 SE4        N/A
$$

MTZ009>010-012-014-046-048-049-054-310900-
EAST SLOPES AND CENTRAL MONTANA
CITY           SKY/WX    TMP DP  RH WIND       PRES   REMARKS
CUT BANK       MOCLDY    36  34  92 E5        29.95F WCI  32
GREAT FALLS    CLOUDY    50  32  50 SE14      29.96F
HELENA         PTCLDY    39  34  82 CALM      30.02F
MALMSTROM AFB  CLOUDY    39  36  89 NE3       29.98F
* DEARBORN     N/A       40  35  82 N/A        N/A
* EAST GLACIER N/A       34  32  92 N/A        N/A
* MONARCH      N/A       52  23  32 S14G19     N/A
* SAINT MARY   N/A       37  32  82 S4         N/A
* SWEET GRASS  N/A       36  35  96 S26G31     N/A   WCI  24
$$

MTZ011-013-016-021-035-040-045-047-050-051-310900-
NORTH CENTRAL MONTANA
CITY           SKY/WX    TMP DP  RH WIND       PRES   REMARKS
HAVRE          PTCLDY    36  32  85 E18       30.02F WCI  26
LEWISTOWN      PTCLDY    43  32  65 E9        30.07F
* N BAR RANCH  CLEAR     45  32  60 CALM      30.14F
* CHESTER      N/A       40  33  76 SE4G11     N/A
* DENTON       N/A       49  33  54 SE15G20    N/A
* GEYSER       N/A       36  31  82 S4         N/A
* JUDITH GAP   N/A       39  31  73 S11G16     N/A   WCI  32
* LOMA         N/A       40  34  79 NE17G25    N/A   WCI  31
$$

MTZ017>020-022>027-061-062-310900-
NORTHEAST MONTANA
CITY           SKY/WX    TMP DP  RH WIND       PRES   REMARKS
GLASGOW        PTCLDY    34  28  79 SE20      30.27F WCI  23
GLENDIVE       CLOUDY    34  28  79 SE12G20   30.38F WCI  25
JORDAN         PTCLDY    32  28  85 E12       30.24F WCI  23
SIDNEY         CLOUDY    34  27  76 SE14      30.43F WCI  24
WOLF POINT     CLOUDY    37  30  76 SE14      30.36F WCI  28
* BEAVER HILL  N/A       31  29  92 SE24G34    N/A   WCI  18
* CIRCLE       N/A       33  30  89 E10        N/A   WCI  25
* LINDSAY DVD  N/A       31  29  92 SE21G26    N/A   WCI  18
* NAVAJO       N/A       30  27  89 SE19G25    N/A   WCI  18
* PLENTYWOOD A N/A       30 N/A N/A N/A        N/A
* POPLAR APT   N/A      N/A N/A N/A N/A        N/A
* SACO         N/A       36  31  82 E24G31     N/A   WCI  24
$$

MTZ028>042-056>058-310900-
SOUTHCENTRAL AND SOUTHEAST MONTANA
CITY           SKY/WX    TMP DP  RH WIND       PRES   REMARKS
BAKER          CLOUDY    34  28  79 SE26G35   30.39F WCI  21
BILLINGS       MOCLDY    39  30  70 N6        30.13F WCI  35
LIVINGSTON     CLOUDY    39  28  65 SE3       30.11F
MILES CITY     CLOUDY    34  28  79 SE14      30.30F WCI  24
* FORSYTH APT  PTCLDY    34  30  85 E10        N/A   WCI  26
* LAUREL APT   MOCLDY    43  25  49 N5         N/A
* ROUNDUP APT  MOCLDY    34  28  79 N/A        N/A
* ALZADA       N/A       32  30  92 E16        N/A   WCI  21
* HYSHAM       N/A       44  32  63 E10G17     N/A
* LAME DEER    N/A       39  31  73 SE12G20    N/A   WCI  32
* REED POINT   N/A       34  30  85 N/A        N/A
* ROSCOE HILL  N/A       41  24  51 W2         N/A
$$

REGIONAL REPORTS...DAKOTAS
CITY           SKY/WX    TMP DP  RH WIND       PRES   REMARKS
WILLISTON      CLOUDY    30  23  75 SE13G20   30.45F WCI  20
DICKINSON      CLOUDY    28  25  89 SE17      30.46F WCI  16
BEACH          FOG       32  32 100 SE24G30   30.39F WCI  19
CROSBY         PTCLDY    23  21  92 SE7       30.46F WCI  15
TIOGA          CLOUDY    27  27 100 SE13      30.49F WCI  16
BISMARCK       PTCLDY    19  18  96 NE6       30.59S WCI  11
GRAND FORKS    CLEAR     18  12  77 NW6       30.61R WCI  10
FARGO          CLEAR     19  16  88 NW8       30.60R WCI   9
BUFFALO SD     PTCLDY    32  28  85 SE15      30.37F WCI  22
RAPID CITY     FOG       30  28  92 SE13      30.48F WCI  20
$$

REGIONAL REPORTS...WYOMING/IDAHO/WASHINGTON
CITY           SKY/WX    TMP DP  RH WIND       PRES   REMARKS
GILLETTE       CLEAR     36  30  79 S20G31    30.29F WCI  25
SHERIDAN       PTCLDY    43  27  53 SE8       30.17F
CODY           MOCLDY    39  28  65 SE9       30.16F WCI  33
YELLOWSTONE LA PTCLDY    28  27  96 CALM      30.26F
SALMON         CLOUDY    37  36  96 CALM      30.01F
MULLAN PASS    PTCLDY    39  36  89 S12       29.91S WCI  32
SAND POINT     MOCLDY    45  45 100 NE9       29.83F
SPOKANE        CLOUDY    48  43  83 NE7       29.78F
$$

REGIONAL REPORTS...SASKATCHEWAN
CITY           SKY/WX    TMP DP  RH WIND       PRES   REMARKS
SWIFT CURRENT  CLOUDY    32  30  92 SE35G45   30.10F WCI  17

$$




USA.gov is the U.S. government's official web portal to all federal, state and local government web resources and services.